Location: Palomar Mountain Lodge
(33.3110°N, 116.8495°W)
Time: 02:24:32
(UTC-07:00)

SL-08 RB Rocket - Pass Details

Date: 19 May 2017
Orbit: 648 x 684 km, 98.0° (Epoch: 16 October)

Event Time Altitude Azimuth Distance (km) Brightness Sun altitude
Exits shadow 22:01:19 59° 60° (ENE) 750 3.8 -24.1°
Drops below altitude 10° 22:05:31 10° 356° (N) 2,053 6.9 -24.6°
Sets 22:07:44 0° 353° (N) 2,966 7.9 -24.9°
